| time (UTC) | temp C | wind direction | speed KPH | gust KPH | rain 1hr cm | rain 24hr cm | rain mn cm | humidity % | barometer mb |
| 20260507231518 | 9 | 177 | 14.5 | 27.4 | 0.00 | 0.00 | 0.00 | 76 | 1012.0 |
| 20260507230020 | 9 | 258 | 12.9 | 48.3 | 0.00 | 0.00 | 0.00 | 76 | 1011.9 |
| 20260507224537 | 9 | 189 | 11.3 | 29.0 | 0.00 | 0.00 | 0.00 | 75 | 1011.9 |
| 20260507223211 | 9 | 153 | 19.3 | 29.0 | 0.00 | 0.00 | 0.00 | 75 | 1011.8 |
| 20260507221601 | 9 | 202 | 14.5 | 38.6 | 0.00 | 0.00 | 0.00 | 75 | 1011.8 |
| 20260507220001 | 9 | 213 | 16.1 | 40.2 | 0.00 | 0.00 | 0.00 | 76 | 1011.8 |
| 20260507214542 | 9 | 205 | 14.5 | 33.8 | 0.00 | 0.00 | 0.00 | 76 | 1011.8 |
| 20260507213151 | 9 | 217 | 14.5 | 41.8 | 0.00 | 0.00 | 0.00 | 77 | 1011.8 |
| 20260507211601 | 9 | 186 | 12.9 | 32.2 | 0.00 | 0.00 | 0.00 | 77 | 1011.8 |
| 20260507210124 | 9 | 234 | 14.5 | 37.0 | 0.00 | 0.00 | 0.00 | 76 | 1011.8 |
| 20260507204520 | 10 | 168 | 12.9 | 30.6 | 0.00 | 0.00 | 0.00 | 76 | 1011.9 |
| 20260507203059 | 10 | 178 | 16.1 | 30.6 | 0.00 | 0.00 | 0.00 | 76 | 1012.1 |
| 20260507201604 | 10 | 178 | 12.9 | 30.6 | 0.00 | 0.00 | 0.00 | 75 | 1012.0 |
| 20260507200120 | 10 | 234 | 14.5 | 35.4 | 0.00 | 0.00 | 0.00 | 75 | 1011.9 |
| 20260507194528 | 10 | 209 | 9.7 | 24.1 | 0.00 | 0.00 | 0.00 | 74 | 1011.8 |
| 20260507193027 | 10 | 178 | 11.3 | 24.1 | 0.00 | 0.00 | 0.00 | 73 | 1011.7 |
| 20260507191544 | 10 | 217 | 6.4 | 19.3 | 0.00 | 0.00 | 0.00 | 73 | 1011.7 |
| 20260507190116 | 11 | 162 | 8.0 | 22.5 | 0.00 | 0.00 | 0.00 | 72 | 1011.9 |
| 20260507184523 | 11 | 198 | 9.7 | 22.5 | 0.00 | 0.00 | 0.00 | 71 | 1011.8 |
| 20260507183137 | 11 | 179 | 8.0 | 22.5 | 0.00 | 0.00 | 0.00 | 70 | 1011.7 |
| 20260507181544 | 11 | 208 | 9.7 | 20.9 | 0.00 | 0.00 | 0.00 | 68 | 1011.6 |
| 20260507180117 | 11 | 165 | 8.0 | 22.5 | 0.00 | 0.00 | 0.00 | 67 | 1011.6 |
| 20260507174518 | 12 | 195 | 12.9 | 27.4 | 0.00 | 0.00 | 0.00 | 66 | 1011.5 |
| 20260507173058 | 12 | 250 | 9.7 | 29.0 | 0.00 | 0.00 | 0.00 | 65 | 1011.5 |
| 20260507171602 | 12 | 234 | 14.5 | 29.0 | 0.00 | 0.00 | 0.00 | 63 | 1011.3 |
| 20260507170124 | 13 | 185 | 11.3 | 22.5 | 0.00 | 0.00 | 0.00 | 61 | 1011.3 |
| 20260507164536 | 13 | 187 | 11.3 | 27.4 | 0.00 | 0.00 | 0.00 | 62 | 1011.3 |
| 20260507163103 | 14 | 211 | 8.0 | 25.7 | 0.00 | 0.00 | 0.00 | 60 | 1011.5 |
| 20260507161610 | 14 | 202 | 14.5 | 24.1 | 0.00 | 0.00 | 0.00 | 59 | 1011.6 |
| 20260507160124 | 13 | 217 | 12.9 | 33.8 | 0.00 | 0.00 | 0.00 | 61 | 1011.5 |
| 20260507154530 | 15 | 198 | 11.3 | 32.2 | 0.00 | 0.00 | 0.00 | 57 | 1011.6 |
| 20260507153109 | 14 | 180 | 11.3 | 30.6 | 0.00 | 0.00 | 0.00 | 58 | 1011.8 |
| 20260507151532 | 13 | 237 | 6.4 | 27.4 | 0.00 | 0.00 | 0.00 | 63 | 1011.7 |
| 20260507150005 | 12 | 173 | 12.9 | 25.7 | 0.00 | 0.00 | 0.00 | 63 | 1011.8 |
| 20260507144527 | 12 | 179 | 14.5 | 30.6 | 0.00 | 0.00 | 0.00 | 64 | 1011.8 |
| 20260507143053 | 12 | 216 | 11.3 | 32.2 | 0.00 | 0.00 | 0.00 | 68 | 1011.9 |
| 20260507141537 | 11 | 194 | 11.3 | 29.0 | 0.00 | 0.00 | 0.00 | 69 | 1012.0 |
| 20260507134618 | 11 | 160 | 12.9 | 25.7 | 0.00 | 0.00 | 0.00 | 69 | 1012.3 |
| 20260507133128 | 11 | 241 | 9.7 | 25.7 | 0.00 | 0.00 | 0.00 | 71 | 1012.3 |
| 20260507131524 | 11 | 211 | 9.7 | 24.1 | 0.00 | 0.00 | 0.00 | 71 | 1012.2 |
| 20260507130109 | 11 | 167 | 9.7 | 25.7 | 0.00 | 0.00 | 0.00 | 70 | 1012.3 |
| 20260507124615 | 10 | 199 | 9.7 | 27.4 | 0.00 | 0.00 | 0.00 | 71 | 1012.5 |
| 20260507123117 | 10 | 173 | 14.5 | 32.2 | 0.00 | 0.00 | 0.00 | 71 | 1012.3 |
| 20260507121605 | 10 | 127 | 14.5 | 29.0 | 0.00 | 0.00 | 0.00 | 73 | 1012.4 |
| 20260507120123 | 9 | 182 | 11.3 | 35.4 | 0.00 | 0.00 | 0.00 | 74 | 1012.6 |
| 20260507113057 | 8 | 131 | 11.3 | 22.5 | 0.00 | 0.00 | 0.00 | 75 | 1012.7 |
| 20260507111553 | 8 | 186 | 11.3 | 29.0 | 0.00 | 0.00 | 0.00 | 75 | 1012.7 |
| 20260507110117 | 8 | 174 | 11.3 | 27.4 | 0.00 | 0.00 | 0.00 | 73 | 1012.8 |
| 20260507104611 | 9 | 236 | 12.9 | 25.7 | 0.00 | 0.00 | 0.00 | 72 | 1012.9 |
| 20260507103006 | 9 | 174 | 11.3 | 33.8 | 0.00 | 0.00 | 0.00 | 71 | 1012.9 |
| 20260507101553 | 9 | 156 | 11.3 | 22.5 | 0.00 | 0.00 | 0.00 | 70 | 1012.8 |
| 20260507100113 | 9 | 159 | 9.7 | 27.4 | 0.00 | 0.00 | 0.00 | 70 | 1012.8 |
| 20260507094603 | 10 | 165 | 11.3 | 25.7 | 0.00 | 0.00 | 0.00 | 71 | 1012.6 |
| 20260507093003 | 10 | 173 | 9.7 | 22.5 | 0.00 | 0.00 | 0.00 | 71 | 1012.6 |
| 20260507091547 | 10 | 189 | 11.3 | 20.9 | 0.00 | 0.00 | 0.00 | 71 | 1012.6 |
| 20260507090111 | 10 | 159 | 11.3 | 25.7 | 0.00 | 0.00 | 0.00 | 72 | 1012.5 |
| 20260507084606 | 10 | 197 | 6.4 | 32.2 | 0.00 | 0.00 | 0.00 | 72 | 1012.6 |
| 20260507083124 | 10 | 173 | 8.0 | 30.6 | 0.00 | 0.00 | 0.00 | 73 | 1012.6 |
| 20260507081528 | 10 | 248 | 12.9 | 25.7 | 0.00 | 0.00 | 0.00 | 72 | 1012.6 |
| 20260507080007 | 8 | 171 | 11.3 | 20.9 | 0.00 | 0.00 | 0.00 | 75 | 1012.6 |
| 20260507074512 | 8 | 175 | 11.3 | 27.4 | 0.00 | 0.00 | 0.00 | 76 | 1012.7 |
| 20260507073128 | 8 | 240 | 9.7 | 33.8 | 0.00 | 0.00 | 0.00 | 77 | 1012.6 |
| 20260507071530 | 7 | 236 | 9.7 | 22.5 | 0.00 | 0.00 | 0.00 | 78 | 1012.7 |
| 20260507070150 | 7 | 213 | 11.3 | 25.7 | 0.00 | 0.00 | 0.00 | 77 | 1012.6 |
| 20260507064542 | 7 | 246 | 11.3 | 20.9 | 0.00 | 0.00 | 0.00 | 76 | 1012.5 |
| 20260507063059 | 7 | 238 | 11.3 | 27.4 | 0.00 | 0.00 | 0.00 | 76 | 1012.7 |
| 20260507061553 | 7 | 187 | 12.9 | 33.8 | 0.00 | 0.00 | 0.00 | 76 | 1012.7 |
| 20260507060107 | 6 | 201 | 14.5 | 29.0 | 0.00 | 0.00 | 0.00 | 76 | 1012.7 |
| 20260507054545 | 6 | 226 | 12.9 | 27.4 | 0.00 | 0.00 | 0.00 | 75 | 1012.7 |
| 20260507053120 | 6 | 188 | 12.9 | 33.8 | 0.00 | 0.00 | 0.00 | 75 | 1012.7 |
| 20260507051609 | 6 | 211 | 12.9 | 22.5 | 0.00 | 0.00 | 0.00 | 74 | 1012.6 |
| 20260507050128 | 6 | 184 | 12.9 | 25.7 | 0.00 | 0.00 | 0.00 | 73 | 1012.8 |
| 20260507044513 | 6 | 186 | 12.9 | 25.7 | 0.00 | 0.00 | 0.00 | 72 | 1012.8 |
| 20260507043133 | 6 | 202 | 14.5 | 32.2 | 0.00 | 0.00 | 0.00 | 71 | 1012.7 |
| 20260507041544 | 6 | 222 | 11.3 | 27.4 | 0.00 | 0.00 | 0.00 | 71 | 1012.7 |
| 20260507040100 | 6 | 158 | 11.3 | 27.4 | 0.00 | 0.00 | 0.00 | 70 | 1012.6 |
| 20260507034556 | 7 | 264 | 14.5 | 32.2 | 0.00 | 0.00 | 0.00 | 69 | 1012.6 |
| 20260507033116 | 7 | 170 | 14.5 | 32.2 | 0.00 | 0.00 | 0.00 | 68 | 1012.9 |
| 20260507031514 | 7 | 227 | 9.7 | 24.1 | 0.00 | 0.00 | 0.00 | 69 | 1013.1 |
| 20260507030001 | 6 | 234 | 9.7 | 19.3 | 0.00 | 0.00 | 0.00 | 70 | 1013.1 |
| 20260507024547 | 6 | 199 | 9.7 | 24.1 | 0.00 | 0.00 | 0.00 | 70 | 1013.1 |
| 20260507023109 | 6 | 250 | 8.0 | 19.3 | 0.00 | 0.00 | 0.00 | 69 | 1013.2 |
| 20260507021609 | 6 | 155 | 9.7 | 24.1 | 0.00 | 0.00 | 0.00 | 70 | 1013.0 |
| 20260507020009 | 6 | 167 | 9.7 | 19.3 | 0.00 | 0.00 | 0.00 | 69 | 1013.0 |
| 20260507014544 | 6 | 190 | 9.7 | 24.1 | 0.00 | 0.00 | 0.00 | 69 | 1013.0 |
| 20260507013023 | 6 | 184 | 11.3 | 19.3 | 0.00 | 0.00 | 0.00 | 68 | 1013.1 |
| 20260507011548 | 6 | 205 | 11.3 | 27.4 | 0.00 | 0.00 | 0.00 | 68 | 1013.2 |
| 20260507010101 | 6 | 182 | 9.7 | 17.7 | 0.00 | 0.00 | 0.00 | 68 | 1013.3 |
| 20260507004557 | 6 | 208 | 9.7 | 17.7 | 0.00 | 0.00 | 0.00 | 68 | 1013.4 |
| 20260507003119 | 6 | 207 | 9.7 | 22.5 | 0.00 | 0.00 | 0.00 | 68 | 1013.5 |
| 20260507001505 | 6 | 206 | 8.0 | 19.3 | 0.00 | 0.00 | 0.00 | 68 | 1013.5 |
| 20260507000005 | 6 | 164 | 11.3 | 24.1 | 0.00 | 0.00 | 0.00 | 70 | 1013.6 |
| 20260506234539 | 6 | 185 | 11.3 | 24.1 | 0.00 | 0.00 | 0.00 | 70 | 1013.6 |
| 20260506233100 | 6 | 192 | 12.9 | 29.0 | 0.00 | 0.00 | 0.00 | 70 | 1013.7 |